Starlink 4187

operational
NORAD ID: 52850 Int'l Des: 2022-062 Owner: SPXS Country: US Constellation: starlink
LEOCIRCULAR

关于 Starlink 4187

正在加载描述...

实时位置

正在加载3D地球...

即将过境

高度历史

Altitude vs Time

uPlot chart will show altitude changes over time

两行轨道根数

1 52850U 22062W 26033.44513979 .00000908 00000-0 75141-4 0 9997
2 52850 53.2166 192.7010 0001566 66.0017 294.1139 15.08844487200463
Epoch: Feb 2, 2026 • Age: 25 hours

当前状态

高度 553.4 km
速度 7.58 km/s
星下点 -38.68°S, 97.69°E
发射日期 Jun 17, 2022
运行时间 3.6 years
类型 internet

技术详情

分类 Payload
质量 297.00 kg
干质量 275.00 kg
总质量 297.00 kg
长度 0.20 m
直径 2.80 m
跨度 9.00 m
形状 Box + pan
制造商 SPXS
平台类型 Starlink
阶段状态 In Orbit
所有者/国家 SPXS/US

大型星座

Loading constellations...